Home   Weather   Gurgaon   Past weeks

Flag for India Past Weather in Gurgaon, Haryana, India — Yesterday and Last 2 Weeks

Now
57 °F

Fog.


Feels Like: 55 °F
Forecast: 50 / 64 °F
Wind: 12 mph from East

Location: New Delhi Palam Airport

Current Time: Jan 23, 2018 at 6:15:34 pm

Latest Report: Jan 23, 2018 at 6:00 pm


Visibility: 1 mi

Pressure: 29.80 "Hg

Humidity: 82%

Dew Point: 52 °F

Location of GurgaonLocation

Past Weather in Gurgaon — Graph

°F

Gurgaon Temperature Yesterday

Maximum temperature yesterday: 77 °F (at 2:30 pm)
Minimum temperature yesterday: 45 °F (at 7:00 am)
Average temperature yesterday: 59 °F

High & Low Weather Summary for the Past Weeks

 TemperatureHumidityPressure
High79 °F (Jan 18, 3:30 pm)100% (Jan 11, 5:00 am)30.15 "Hg (Jan 11, 5:00 am)
Low41 °F (Jan 21, 6:00 am)23% (Jan 14, 2:30 pm)29.77 "Hg (Jan 23, 4:00 pm)
Average58 °F66%29.99 "Hg
* Reported Jan 8 4:30 pm — Jan 23 4:30 pm, Gurgaon. Weather by CustomWeather, © 2018

Note: Actual official high and low records may vary slightly from our data, if they occured in-between our weather recording intervals... More about our weather records

Advertising

Gurgaon Weather History for the Previous 24 Hours

Scroll right to see more
 ConditionsComfort  
Time TempWeatherWind HumidityBarometerVisibility
4:30 pm
Tue, Jan 23
61 °FFog.9 mph77%29.80 "Hg1 mi
4:00 pm61 °FFog.8 mph83%29.77 "Hg1 mi
2:30 pm57 °FFog.8 mph88%29.80 "Hg1 mi
1:30 pm57 °FRain. More clouds than sun.5 mph88%29.86 "Hg1 mi
1:00 pm55 °FFog.8 mph88%29.83 "Hg1 mi
12:30 pm55 °FFog.5 mph88%29.86 "Hg1 mi
12:00 pm55 °FThunderstorms. More clouds than sun.12 mph82%29.89 "Hg1 mi
11:30 am57 °FLight rain. More clouds than sun.12 mph72%29.89 "Hg1 mi
11:00 am59 °FMore clouds than sun.12 mph63%29.92 "Hg1 mi
10:30 am63 °FMore clouds than sun.12 mph56%29.89 "Hg1 mi
10:00 am63 °FBroken clouds.12 mph64%29.86 "Hg1 mi
9:30 am59 °FLight rain. Broken clouds.12 mph77%29.86 "Hg1 mi
9:00 am59 °FLight rain. More clouds than sun.12 mph72%29.89 "Hg1 mi
8:30 am59 °FBroken clouds.7 mph63%29.86 "Hg1 mi
7:30 am57 °FPartly cloudy.7 mph72%29.86 "Hg1 mi
7:00 am57 °FFog.6 mph77%29.86 "Hg1 mi
6:30 am57 °FFog.7 mph77%29.83 "Hg1 mi
6:00 am55 °FFog.8 mph82%29.83 "Hg1 mi
5:30 am55 °FFog.7 mph82%29.83 "Hg1 mi
5:00 am55 °FFog.8 mph88%29.83 "Hg1 mi
4:30 am54 °FFog.7 mph88%29.83 "Hg1 mi
4:00 am55 °FFog.8 mph88%29.83 "Hg1 mi
3:30 am55 °FFog.7 mph82%29.86 "Hg1 mi
2:30 am55 °FFog.5 mph82%29.86 "Hg1 mi
2:00 am55 °FFog.5 mph82%29.86 "Hg1 mi
1:30 am55 °FFog.5 mph82%29.86 "Hg1 mi
1:00 am55 °FFog.6 mph82%29.86 "Hg1 mi
12:30 am55 °FFog.5 mph82%29.86 "Hg1 mi
11:30 pm
Mon, Jan 22
57 °FFog.6 mph77%29.89 "Hg1 mi
11:00 pm57 °FFog.6 mph77%29.89 "Hg1 mi
10:30 pm57 °FFog.6 mph77%29.89 "Hg1 mi
10:00 pm59 °FClear.7 mph72%29.89 "Hg1 mi
9:30 pm61 °FClear.6 mph68%29.89 "Hg1 mi
9:00 pm72 °FClear.3 mph53%29.95 "Hg4 mi
8:30 pm63 °FClear.5 mph64%29.89 "Hg1 mi
8:00 pm63 °FClear.6 mph59%29.86 "Hg1 mi
6:30 pm66 °FClear.6 mph52%29.86 "Hg1 mi
6:00 pm68 °FClear.6 mph49%29.86 "Hg1 mi
Weather by CustomWeather, © 2018

See weather overview